COSMOS 1691

导读 | 豆包AI

**COSMOS 1691卫星摘要** COSMOS 1691是独联体(CIS)继承自苏联航天计划的卫星,于1985年10月9日发射。作为苏联“宇宙”系列卫星成员,该系列常涵盖军事侦察与空间科学试验任务,多数任务细节未公开。卫星进入近地轨道运行,旨在完成地球观测或空间环境探测任务,延续了苏联航天领域对近地空间持续探索的传统。

Basic Information
目录编号:
16139
目录名称:
COSMOS 1691
国际标识:
1985-094B
轨道中心:
EARTH
卫星名称:
COSMOS 1691
卫星全名:
--
卫星状态:
在轨 (已飞行14814 天)
发射日期:
1985-10-09 UTC
国别 :
俄罗斯(独联体) (CIS)
星等 :
--
Orbit Information
数据来源 国际轨道数据 AOE轨道数据
星历时间 2026-04-30T22:42:44+0800
16小时前
查看轨道信息
2026-05-01T03:00:00+0800
12小时前
查看轨道信息
半长轴 7790.884km 7790.889km
偏心率 0.0000618 0.0000472
轨道倾角 82.611° 82.611°
近地点辐角 76.596° 63.269°
升交点赤经 320.153° 320.039°
平近点角 347.945° 92.863°
近地点 1412.265km 1412.384km
远地点 1413.229km 1413.12km
周期 114.062分钟 114.062分钟
每日圈数 12.624748 12.624735
Detailed Information
使用方式:
暂无
2D Orbit Map
3D Orbit Map
Orbit Altitude Analysis Chart
Orbit Inclination Analysis Chart
Orbit Comprehensive Analysis Chart
View Comprehensive Chart